[[{"header":{"parameterUnit":"m.s-1","parameterCategory":1,"la1":30.2991,"la2":30.254,"lo1":-89.0895,"lo2":-89.0444,"dy":0.0017,"dx":0.0017,"nx":28,"ny":28,"refTime":"2024-07-22T03:00:00:Z","depth":0,"parameterNumber":2,"parameterNumberName":"U-component_of_WINDS"},"data":[0,0,0,0,0,0,0,0,0,0,0,0,0,0,0,0,0,0,0,0,0,0,0,0,0,0,0,0,0,0,0,0,0,0,0,0,0,0,0,0,0,0,0,0,0,0,0,0,0,0,0,0,0,0,0,0,0,0,3.421,3.421,0,3.4258,3.4258,3.4259,3.4213,3.4211,3.4209,3.4208,3.4259,3.4262,3.4265,0,0,0,0,0,0,0,0,0,0,0,0,0,3.4081,3.4084,3.421,3.421,3.4211,3.4257,3.4258,3.4259,3.4213,3.4211,3.4209,3.4207,3.4258,3.4262,3.4265,0,0,0,0,0,0,0,0,0,0,0,0,0,3.4134,3.4085,3.421,3.4194,3.4193,3.4257,3.4258,3.4259,3.4214,3.4211,3.4208,3.4206,3.4257,3.4261,3.4266,3.4349,0,0,3.428,3.4282,0,0,0,0,0,0,0,0,3.4131,3.4139,3.4195,3.4195,3.4194,3.4226,3.4232,3.4289,3.4214,3.4206,3.4208,3.4204,3.4251,3.4256,3.4271,3.4352,3.4354,3.4281,3.4283,3.4285,3.4287,0,0,0,0,0,0,0,3.4128,3.4137,3.4229,3.4196,3.4195,3.4185,3.4189,3.4242,3.4243,3.4206,3.4203,3.4209,3.425,3.4266,3.4272,3.4355,3.428,3.4284,3.4287,3.4289,3.4508,3.451,0,0,0,0,0,0,3.4125,3.4134,3.4227,3.423,3.4155,3.419,3.4195,3.4219,3.4242,3.4243,3.4212,3.4207,3.426,3.4266,3.4273,3.4372,3.4285,3.429,3.4292,3.4505,3.4508,3.4511,0,0,0,0,0,0,3.4123,3.4134,3.4225,3.4181,3.4192,3.4195,3.4222,3.4221,3.4238,3.4246,3.4246,3.4228,3.4258,3.4267,3.4331,3.4374,3.4292,3.4296,3.4501,3.4506,3.451,3.4572,0,0,0,0,0,0,3.4119,3.4133,3.4164,3.4182,3.4194,3.4281,3.4225,3.4224,3.4245,3.424,3.4262,3.4263,3.4256,3.4324,3.4335,3.4378,3.4299,3.4497,3.4503,3.4508,3.4566,3.4578,3.4588,0,0,0,0,0,3.4115,3.418,3.4166,3.4178,3.4233,3.4284,3.4291,3.4281,3.4249,3.4281,3.4286,3.4262,3.4367,3.4331,3.4343,3.4389,3.4494,3.4501,3.4508,3.4561,3.4575,3.4588,0,0,0,0,0,0,3.4168,3.4182,3.4167,3.424,3.4261,3.4276,3.4315,3.4297,3.4328,3.4321,3.4309,3.4314,3.4382,3.4392,3.4351,3.4471,3.4426,3.4435,3.4462,3.4476,3.4487,3.4483,3.4303,0,0,0,0,0,3.4188,3.4227,3.4238,3.4301,3.4313,3.4312,3.4334,3.4325,3.4346,3.4355,3.4366,3.4388,3.4426,3.4452,3.4487,3.4567,3.4572,3.4605,3.4616,3.4625,3.4633,3.4677,3.4692,3.4534,3.4534,3.4534,0,0,3.423,3.4243,3.4268,3.4312,3.4328,3.4369,3.432,3.4366,3.4397,3.4363,3.4423,3.4432,3.4457,3.4529,3.4562,3.4539,3.4678,3.4634,3.4641,3.4644,3.4685,3.47,3.4714,3.4538,3.4538,3.4537,0,0,3.4328,3.4341,3.4396,3.4412,3.4436,3.4435,3.4448,3.4467,3.4471,3.4531,3.4507,3.4544,3.461,3.4628,3.4646,3.4753,3.4732,3.4765,3.4823,3.4865,3.4878,3.4889,3.4927,3.4941,3.4773,3.4773,3.4773,0,3.4377,3.4438,3.4426,3.4474,3.4495,3.4465,3.452,3.4537,3.4572,3.4587,3.4561,3.4643,3.4658,3.4735,3.476,3.4776,3.4791,3.4762,3.4877,3.4888,3.4898,3.4934,3.4948,3.4777,3.4777,3.4776,3.4776,0,3.4498,3.4541,3.4582,3.4615,3.4641,3.4692,3.4689,3.4716,3.4705,3.4708,3.4771,3.4787,3.4826,3.4843,3.4833,3.4919,3.4905,3.4878,3.4833,3.4917,3.4951,3.4964,3.4783,3.4781,3.478,3.4779,0,0,3.4629,3.4656,3.4671,3.4686,3.4711,3.4744,3.4795,3.4832,3.4856,3.4881,3.4923,3.498,3.4956,3.4977,3.4969,3.5007,3.509,3.4976,3.4976,3.4996,3.5186,3.5205,3.5222,3.5077,3.5079,3.5081,3.5184,0,3.4728,3.4815,3.4806,3.489,3.4929,3.4902,3.4947,3.4967,3.4971,3.5006,3.5011,3.5052,3.5017,3.5029,3.5065,3.5072,3.5128,3.5065,3.5117,3.5119,3.5111,3.5239,3.5259,3.5355,3.5197,3.5199,3.5201,0,3.4854,3.4883,3.497,3.4989,3.5005,3.5045,3.5079,3.5113,3.5136,3.5136,3.516,3.5146,3.5198,3.5152,3.5224,3.5181,3.5202,3.5209,3.5213,3.5217,3.5165,3.5247,3.5386,3.54,3.5222,3.522,3.5219,0,3.4941,3.5002,3.5062,3.5076,3.5099,3.5128,3.514,3.516,3.5183,3.5213,3.5228,3.5264,3.5284,3.5312,3.5309,3.5275,3.5383,3.5336,3.5385,3.5385,3.5408,3.5407,3.5553,3.5423,3.5423,3.5422,3.5422,0,3.5051,3.5106,3.5102,3.5138,3.5199,3.5189,3.525,3.5258,3.5276,3.5315,3.5294,3.5331,3.5325,3.5362,3.536,3.542,3.543,3.5432,3.5431,3.5434,3.5433,3.5447,3.544,3.5426,3.5425,3.5425,3.5424,0,3.5158,3.5158,3.5221,3.5239,3.5245,3.5288,3.5303,3.5339,3.5342,3.5391,3.5402,3.5407,3.545,3.5449,3.5499,3.5497,3.5571,3.5563,3.5563,3.5561,3.561,3.5606,3.577,3.5791,3.5648,3.5649,3.565,0,3.5229,3.527,3.5292,3.5316,3.5329,3.5368,3.5391,3.5384,3.541,3.5439,3.5472,3.5512,3.5545,3.5615,3.5623,3.5661,3.5653,3.5708,3.5659,3.5661,3.5654,3.5651,3.5656,3.5718,3.5719,3.572,3.5722,0,3.5353,3.5351,3.5385,3.542,3.5448,3.5475,3.55,3.5521,3.5517,3.5547,3.559,3.5615,3.5665,3.5706,3.5743,3.5756,3.5739,3.5737,3.575,3.5754,3.5752,3.5753,3.5589,3.5733,3.5732,3.5731,3.5731,3.573,3.5444,3.5479,3.55,3.5539,3.5557,3.5581,3.5615,3.5623,3.5658,3.5698,3.5692,3.5741,3.5764,3.5811,3.5827,3.5866,3.5846,3.5866,3.5871,3.5876,3.5881,3.5746,3.5872,3.5872,3.5872,3.5872,3.5871,0,3.5567,3.558,3.5616,3.5651,3.5682,3.5663,3.5689,3.5717,3.576,3.5782,3.5814,3.5865,3.5905,3.5917,3.5956,3.5985,3.5978,3.5995,3.5993,3.5996,3.5896,3.588,3.6,3.6,3.6,3.6,3.6,3.6,3.5635,3.5694,3.5695,3.5763,3.5775,3.5822,3.5839,3.5862,3.588,3.5936,3.5969,3.5977,3.5996,3.6036,3.6072,3.6075,3.609,3.6111,3.6111,3.6016,3.6003,3.5991,3.5976,3.6115,3.6115,3.6208,3.6209,3.6209]},{"header":{"parameterUnit":"m.s-1","parameterCategory":1,"la1":30.2991,"la2":30.254,"lo1":-89.0895,"lo2":-89.0444,"dy":0.0017,"dx":0.0017,"nx":28,"ny":28,"refTime":"2024-07-22T03:00:00:Z","depth":0,"parameterNumber":3,"parameterNumberName":"V-component_of_WINDS"},"data":[0,0,0,0,0,0,0,0,0,0,0,0,0,0,0,0,0,0,0,0,0,0,0,0,0,0,0,0,0,0,0,0,0,0,0,0,0,0,0,0,0,0,0,0,0,0,0,0,0,0,0,0,0,0,0,0,0,0,-0.3963,-0.3965,0,-0.4107,-0.4109,-0.411,-0.419,-0.419,-0.419,-0.419,-0.434,-0.4343,-0.4347,0,0,0,0,0,0,0,0,0,0,0,0,0,-0.3759,-0.3762,-0.3963,-0.3965,-0.3967,-0.4107,-0.4109,-0.4111,-0.419,-0.419,-0.419,-0.419,-0.4338,-0.4343,-0.4347,0,0,0,0,0,0,0,0,0,0,0,0,0,-0.387,-0.3764,-0.3963,-0.4023,-0.403,-0.4107,-0.4109,-0.4111,-0.419,-0.419,-0.419,-0.419,-0.4337,-0.4342,-0.4348,-0.4377,0,0,-0.4365,-0.4368,0,0,0,0,0,0,0,0,-0.3863,-0.3877,-0.4012,-0.4019,-0.4027,-0.4131,-0.4092,-0.42,-0.4189,-0.4129,-0.419,-0.4191,-0.427,-0.4281,-0.4308,-0.4384,-0.439,-0.4366,-0.4369,-0.4372,-0.4373,0,0,0,0,0,0,0,-0.3856,-0.3872,-0.402,-0.4014,-0.4023,-0.4043,-0.406,-0.4113,-0.4196,-0.4134,-0.414,-0.4156,-0.4274,-0.4302,-0.4312,-0.4392,-0.4366,-0.4371,-0.4374,-0.4376,-0.45,-0.45,0,0,0,0,0,0,-0.3838,-0.3865,-0.4016,-0.4025,-0.3944,-0.4047,-0.4065,-0.4097,-0.4196,-0.4211,-0.4156,-0.4159,-0.4292,-0.4305,-0.4317,-0.4358,-0.4372,-0.4377,-0.438,-0.45,-0.45,-0.45,0,0,0,0,0,0,-0.3833,-0.3851,-0.401,-0.3946,-0.3968,-0.405,-0.4086,-0.41,-0.4128,-0.4212,-0.4227,-0.4169,-0.4293,-0.4309,-0.4361,-0.4364,-0.438,-0.4385,-0.4501,-0.45,-0.45,-0.4439,0,0,0,0,0,0,-0.3827,-0.3849,-0.386,-0.3946,-0.3971,-0.4051,-0.4086,-0.4102,-0.4137,-0.4143,-0.4228,-0.4243,-0.4294,-0.4352,-0.4367,-0.4372,-0.4389,-0.4501,-0.4501,-0.45,-0.4441,-0.4437,-0.4433,0,0,0,0,0,-0.382,-0.3837,-0.386,-0.3878,-0.3987,-0.4051,-0.4065,-0.4124,-0.4137,-0.4149,-0.4203,-0.424,-0.4361,-0.4357,-0.4374,-0.4381,-0.4501,-0.4501,-0.45,-0.4443,-0.4437,-0.4433,0,0,0,0,0,0,-0.375,-0.385,-0.3876,-0.3922,-0.3977,-0.4064,-0.4081,-0.4116,-0.417,-0.4173,-0.4244,-0.4263,-0.4308,-0.435,-0.4344,-0.4415,-0.4435,-0.4438,-0.4386,-0.4381,-0.4377,-0.4366,-0.4394,0,0,0,0,0,-0.374,-0.3783,-0.3868,-0.39,-0.3926,-0.3999,-0.4029,-0.4069,-0.413,-0.4154,-0.4212,-0.427,-0.4321,-0.4353,-0.4405,-0.4447,-0.4468,-0.4461,-0.4457,-0.4453,-0.4455,-0.4481,-0.4479,-0.4499,-0.4499,-0.4499,0,0,-0.372,-0.3779,-0.3802,-0.3888,-0.3935,-0.3979,-0.4018,-0.4062,-0.4096,-0.4161,-0.4213,-0.4258,-0.4327,-0.4375,-0.4398,-0.4411,-0.4454,-0.4452,-0.4449,-0.4453,-0.448,-0.4478,-0.4477,-0.4499,-0.4499,-0.4499,0,0,-0.3705,-0.3754,-0.3787,-0.3833,-0.3905,-0.3953,-0.396,-0.4042,-0.4074,-0.4128,-0.4178,-0.4219,-0.4305,-0.4353,-0.4389,-0.4392,-0.4428,-0.4407,-0.4386,-0.441,-0.4408,-0.4407,-0.4409,-0.4409,-0.4408,-0.4408,-0.4408,0,-0.3671,-0.3738,-0.3799,-0.3841,-0.3877,-0.3937,-0.3971,-0.4014,-0.4098,-0.4122,-0.4135,-0.4245,-0.4296,-0.4356,-0.4357,-0.4383,-0.4395,-0.4398,-0.4404,-0.4403,-0.4403,-0.4406,-0.4406,-0.4405,-0.4406,-0.4406,-0.4406,0,-0.3693,-0.3738,-0.3756,-0.3836,-0.3874,-0.3911,-0.3979,-0.4011,-0.4047,-0.4094,-0.4149,-0.4212,-0.4278,-0.4295,-0.4332,-0.436,-0.4366,-0.439,-0.4412,-0.4397,-0.4401,-0.4402,-0.4401,-0.4402,-0.4403,-0.4404,0,0,-0.3639,-0.3751,-0.3757,-0.3794,-0.3877,-0.3914,-0.3954,-0.4018,-0.4044,-0.41,-0.4137,-0.4209,-0.4232,-0.4272,-0.4315,-0.4336,-0.4335,-0.4358,-0.4361,-0.4352,-0.4371,-0.4352,-0.4352,-0.4359,-0.436,-0.436,-0.4365,0,-0.3636,-0.3711,-0.3767,-0.382,-0.3863,-0.3921,-0.3957,-0.4012,-0.4057,-0.4101,-0.4151,-0.4201,-0.4227,-0.4252,-0.4276,-0.433,-0.434,-0.4331,-0.4395,-0.4396,-0.4375,-0.4354,-0.4335,-0.4337,-0.4367,-0.4367,-0.4368,0,-0.3643,-0.3697,-0.3754,-0.3833,-0.3853,-0.3884,-0.3947,-0.3988,-0.4052,-0.4083,-0.4128,-0.4172,-0.4218,-0.4235,-0.4301,-0.4293,-0.4323,-0.4353,-0.4355,-0.4363,-0.4381,-0.4363,-0.4339,-0.4339,-0.437,-0.437,-0.437,0,-0.3598,-0.3685,-0.3731,-0.376,-0.3853,-0.3874,-0.3913,-0.3978,-0.4012,-0.4068,-0.4091,-0.4152,-0.4185,-0.4231,-0.429,-0.4297,-0.435,-0.4372,-0.4378,-0.4376,-0.4386,-0.4385,-0.4367,-0.4404,-0.4404,-0.4404,-0.4404,0,-0.359,-0.3623,-0.3712,-0.374,-0.3779,-0.3843,-0.388,-0.3925,-0.3982,-0.402,-0.4074,-0.4109,-0.4186,-0.423,-0.4277,-0.4324,-0.4339,-0.4366,-0.4378,-0.4362,-0.4358,-0.4382,-0.4384,-0.4405,-0.4405,-0.4405,-0.4404,0,-0.3546,-0.3607,-0.3661,-0.3744,-0.3766,-0.3791,-0.3863,-0.3892,-0.394,-0.3988,-0.4003,-0.4079,-0.4134,-0.4198,-0.4275,-0.4306,-0.435,-0.4368,-0.4328,-0.4335,-0.4338,-0.4336,-0.4335,-0.4338,-0.4372,-0.4372,-0.4371,0,-0.3537,-0.3564,-0.3649,-0.3679,-0.3717,-0.3763,-0.3799,-0.3864,-0.3899,-0.3974,-0.3995,-0.4054,-0.4105,-0.4191,-0.4253,-0.4313,-0.4332,-0.4328,-0.4342,-0.4324,-0.4333,-0.4331,-0.4334,-0.4324,-0.4323,-0.4322,-0.4322,0,-0.3514,-0.3543,-0.3592,-0.3651,-0.3691,-0.3742,-0.3794,-0.3815,-0.3891,-0.3928,-0.3984,-0.4024,-0.4102,-0.4161,-0.4227,-0.427,-0.4309,-0.4317,-0.4322,-0.4305,-0.4281,-0.4295,-0.4318,-0.4317,-0.4317,-0.4318,-0.4318,-0.4318,-0.3488,-0.3514,-0.3579,-0.3632,-0.3678,-0.3725,-0.3757,-0.3809,-0.3857,-0.3925,-0.3961,-0.4017,-0.4082,-0.4175,-0.4216,-0.4262,-0.4275,-0.4282,-0.4284,-0.4284,-0.428,-0.4273,-0.4275,-0.4275,-0.4275,-0.4275,-0.4276,0,-0.3468,-0.3513,-0.356,-0.3631,-0.3673,-0.3705,-0.3765,-0.3798,-0.3846,-0.3903,-0.3951,-0.4017,-0.4074,-0.4141,-0.4203,-0.4226,-0.4246,-0.4241,-0.424,-0.4249,-0.4264,-0.4254,-0.4224,-0.4224,-0.4224,-0.4224,-0.4224,-0.4224,-0.3463,-0.3509,-0.3546,-0.3616,-0.366,-0.3715,-0.3747,-0.3791,-0.3837,-0.3907,-0.3954,-0.3997,-0.4058,-0.4125,-0.4179,-0.4197,-0.4218,-0.4207,-0.423,-0.4243,-0.4248,-0.4252,-0.4243,-0.4211,-0.4211,-0.4212,-0.4212,-0.4212]}]]